Airfield :
LOGIN :

Register | Disclaimer

   EN    FR    IT 

 










Legend :    VFR   Marginal VFR   IFR   Intensive IFR   Very Intensive IFR
Visi :
Ceiling :
>= 8 km
>= 3000ft
5 to 8 km
1000 to 3000 ft
1500m to 5 km
500 to 1000 ft
800 to 1500m
200 to 500 ft
< 800m
< 200 ft
Symbols :   Thunderstorms  Fog  Heavy snow  Heavy precipitations  Wind > 20 kt
SIGMETs :     Misc.  Thunderstorms  Icing  Turbulence  Mountain Waves  Volcanic Ashes







- Airport Elevation : 240 ft
- IATA code : VLC


LEVC - Valencia Manises

CURRENT METAR :
  • 150730Z 26007KT CAVOK 08/03 Q1023 NOSIG

EXPIRED METARs :
  • 150700Z 25008KT CAVOK 08/03 Q1023 NOSIG
  • 150630Z VRB02KT CAVOK 06/03 Q1023 NOSIG
  • 150600Z 26007KT CAVOK 08/03 Q1022 NOSIG
  • 150530Z 25010KT CAVOK 08/03 Q1022 NOSIG
  • 150500Z 25010KT CAVOK 08/02 Q1022 NOSIG

TAF TAF LEVC
Valid from the 15 at 06:00 until the 16 at 06:00 UTC


150500Z 1506/1606 26008KT 9999 FEW050 TX20/1512Z TN08/1506Z
No reported NOTAMs for that airfield.



MET'MAP, your aeronautical weather chart ! - Copyright ORBIFLY December 2007 - Disclaimer

ORBIFLY MET'MAP TEAM :

Programming & Development : Alexandra Zaïnal
Concept & Development : Baudouin d'Aumeries
Co-Development & Prog : Marc-Olivier Méhu
Technical & hardware support : Manuel Goepfert

Contact : metmap@orbifly.com




SOURCES & CREDITS :

   NOAA